STARLINK-33838, 63500

Orbit data source: Space-Track

STARLINK-33838, 63500 is a payload satellite owned by SpaceX/Seattle (US) in LEO that was launched on Mon, 07 Apr 2025 UTC via an FALCON 9 launch vehicle from the Air Force Western Test Range (AFWTR). Payload-class satellites include a variety of spacecraft equipped with specific instruments for various scientific and technological missions. These include communications satellites like Starlink; space stations such as the ISS; scientific satellites like the Hubble; Earth observation satellites from companies like Planet Labs, Umbra, and HawkEye 360; GPS; miniature CubeSats for education and research; and military/defense satellites.

Loading next visibility...
Identifier
63500, 2025-071H
Orbit
LEO
Country
Flag of USUS
Related business
Manufacturer
SpaceX/Seattle
Mission
Operational Commercial Communications
Bus & Motor
STARLINK V2MO, Unknown motor
Mass
575 kg wet, ~530 kg dry
Launch date (UTC)
2025-04-07 (11 months ago)
Launch vehicle
FALCON 9
Launch site
Air Force Western Test Range (AFWTR)
Object type
Payload
Rocket body
Debris
Shape & HBR
Box + 2 Pan, 17.7 m
Radar Cross Section
36.964 m², Large (>1 m²)

Expand to show TLE details & history
Last TLE update: 10 hours ago

TLE from 10 hours ago
0 STARLINK-33838
1 63500U 25071H   26062.69510285  .00048448  00000-0  16349-2 0  9994
2 63500  53.1599 167.6565 0001535  70.0167 290.0999 15.30245921 51645
Epoch: 2026-03-03T16:40Z
TLE epoch observation values (Epoch: 2026-03-03T16:40:56.886Z)
Latitude
-0.00001°
Longitude
115.94899°
Altitude
475.616 km
Speed
7.629 km/s
True Right ascension
11h 10m 37s
True Declination
0° 00' 00"
Sunlit
Object was in full shadow at epoch
Visualization orbit readout
Latitude
Unknown
Longitude
Unknown
Altitude
Unknown
Speed
Unknown
Apparent Right ascension
Unknown
Apparent Declination
Unknown
Sunlit
N/A
Visualization observer readout
Local Sidereal Time
06:14:13
Azimuth
Unknown
Elevation
Unknown
Doppler factor
Unknown
Orbital elements
Apogee altitude
476.386 km
Perigee altitude
474.282 km
Semi-major axis
6,853.471 km
Eccentricity
0.00015
Inclination
53.1599°
RAAN
167.6565°
Arg. of periapsis
70.0167°
True anomaly
290.08338°
Mean anomaly
290.0999°
Eccentric anomaly
290.09164°
Mean motion
3.8254 °/min
Orbital period
94.11 mins
BSTAR
0.0016349
Loading maneuver chart data...
Computing Atmospheric mass density...
Loading historical data...
Loading historical data...
Loading historical data...
Loading historical data...
Loading historical data...
Loading historical data...
Loading historical data...

Documentation

Showing up to 5 results
|